Weather in Parfenyevo

Russia / Kostroma Oblast     58°28′57″N   43°24′27″E
temp.,
°C
wind,
m/s
gust,
m/s
humid.,
%
clouds,
%
prec.,
mm/h
press.,
hPa
HPBL,
m
17 april, sat
sat1700:00+2ene38875 0.0 1030165
03:00+1ene27905 0.0 1031128
06:000ene28885 0.0 1031158
09:00+7e48590 0.0 1031622
12:00+10e45515 0.0 10301136
15:00+11ene34505 0.0 10291314
18:00+9ene24685 0.0 102889
21:00+4ne25815 0.0 102876
18 april, sun
sun1800:00+2ne26885 0.0 1028108
03:00+2ne278898 0.0 1028115
06:00+2ne3882100 0.0 1028200
09:00+7ne4668100 0.0 1028601
12:00+9ene5662100 0.0 10281365
15:00+5ene4774100 0.1 10301121
18:00+5ene3866100 0.0 10301132
21:00+2ene41165100 0.0 1032478
19 april, mon
mon1900:00+1ene41171100 0.0 1033467
03:00−1ene311778 0.0 1033357
06:00−1e411740 0.0 1034504
09:00+4e59490 0.0 10341089
12:00+7e57435 0.0 10341648
15:00+7ese57395 0.0 10331758
18:00+6e48495 0.0 1033833
21:00+2e310690 0.0 1034275
20 april, tue
tue2000:000e312730 0.0 1035332
03:00−1e312714 0.0 1034336
06:000e4126179 0.0 1034529
09:00+5ese69375 0.0 1033998
12:00+8ese69345 0.0 10311456
15:00+10ese693796 0.0 10291563
18:00+8ese611425 0.0 10271218
21:00+5ese61449100 0.0 1026801
21 april, wed
wed2100:00+4ese61552100 0.0 1024837
03:00+3ese61656100 0.0 1021787
06:00+3ese71762100 0.2 1018916
09:00+3se71780100 0.9 1017950
12:00+4se81785100 1.0 1015908
15:00+5se81785100 1.0 10131128
18:00+5se81887100 0.0 10121129
21:00+6sse91989100 0.4 10121401